Location: Unspecified
(40.7945°N, 0.0000°E)
Time: 05:42:04
(UTC+00:00)

Courier 1B Rocket - All Passes

Search period start: 28 January 2021 00:00
Search period end: 07 February 2021 00:00
Orbit: 920 x 1202 km, 28.2° (Epoch: 27 January)

Date Brightness Start Highest point End Pass type
(mag) Time Alt. Az. Time Alt. Az. Time Alt. Az.
28 Jan - 03:37:10 10° SSE 03:38:26 11° SSE 03:39:43 10° SE visible
28 Jan - 05:25:51 10° SW 05:30:46 23° SSE 05:35:56 10° ESE visible
28 Jan - 07:17:51 10° WSW 07:23:24 28° S 07:29:18 10° SE daylight
28 Jan - 09:11:07 10° WSW 09:16:08 21° SSW 09:21:22 10° SSE daylight
29 Jan - 04:25:44 10° SSW 04:30:02 19° SSE 04:34:28 10° ESE visible
29 Jan - 06:17:11 10° SW 06:22:34 27° S 06:28:14 10° ESE visible
29 Jan - 08:10:01 10° WSW 08:15:15 24° S 08:20:47 10° SE daylight
29 Jan - 10:05:02 10° SW 10:07:52 13° SSW 10:10:45 10° S daylight
30 Jan - 03:26:02 10° S 03:29:20 15° SSE 03:32:41 10° SE visible
30 Jan - 05:16:39 10° SW 05:21:45 25° S 05:27:05 10° ESE visible
30 Jan - 07:09:06 10° WSW 07:14:24 26° S 07:19:59 10° SE daylight
30 Jan - 09:03:01 10° SW 09:07:01 16° SSW 09:11:12 10° SSE daylight
31 Jan - 02:27:41 10° SSE 02:28:40 10° SSE 02:29:41 10° SE visible
31 Jan - 04:16:17 10° SW 04:21:00 22° SSE 04:25:52 10° ESE visible
31 Jan - 06:08:19 10° WSW 06:13:34 27° S 06:19:05 10° SE visible
31 Jan - 08:01:37 10° WSW 08:06:12 20° SSW 08:11:00 10° SSE daylight
01 Feb - 03:16:08 10° SSW 03:20:17 19° SSE 03:24:30 10° ESE visible
01 Feb - 05:07:39 10° SW 05:12:47 26° S 05:18:07 10° ESE visible
01 Feb - 07:00:31 10° WSW 07:05:24 23° SSW 07:10:30 10° SE daylight
01 Feb - 08:55:57 10° SW 08:57:56 11° SSW 08:59:55 10° S daylight
02 Feb - 02:16:21 10° SSW 02:19:36 15° SSE 02:22:52 10° SE visible
02 Feb - 04:07:05 10° SW 04:12:01 25° S 04:17:05 10° ESE visible
02 Feb - 05:59:35 10° WSW 06:04:35 25° S 06:09:48 10° SE visible
02 Feb - 07:53:39 10° SW 07:57:09 15° SSW 08:00:44 10° SSE daylight
03 Feb - 01:17:39 10° SSE 01:18:56 11° SSE 01:20:13 10° SE night (unlit)
03 Feb - 03:06:39 10° SW 03:11:18 22° SSE 03:15:58 10° ESE visible
03 Feb - 04:58:46 10° WSW 05:03:49 26° S 05:09:02 10° SE visible
03 Feb - 06:52:11 10° WSW 06:56:23 18° SSW 07:00:43 10° SSE daylight
04 Feb - 02:06:24 10° SSW 02:10:34 19° SSE 02:14:44 10° ESE night (unlit)
04 Feb - 03:58:02 10° SW 04:03:04 26° S 04:08:10 10° SE visible
04 Feb - 05:51:01 10° WSW 05:55:37 21° SSW 06:00:22 10° SE visible
04 Feb - 07:47:50 10° SSW 07:48:04 10° SSW 07:48:17 10° SSW daylight
05 Feb - 01:06:28 10° SSW 01:09:53 15° SSE 01:13:15 10° SE night (unlit)
05 Feb - 02:57:25 10° SW 03:02:20 24° S 03:07:15 10° ESE visible
05 Feb - 04:50:02 10° WSW 04:54:52 24° S 04:59:48 10° SE visible
05 Feb - 06:44:20 10° SW 06:47:20 14° SSW 06:50:23 10° S daylight
06 Feb - 00:07:18 10° S 00:09:11 11° SSE 00:11:03 10° SE night (unlit)
06 Feb - 01:56:52 10° SW 02:01:36 22° S 02:06:15 10° ESE night (unlit)
06 Feb - 03:49:09 10° WSW 03:54:07 25° S 03:59:08 10° SE visible
06 Feb - 05:42:43 10° SW 05:46:37 17° SSW 05:50:35 10° SSE visible
